User: anonymous   Login
Location: Nelson
(38.9945°N, 93.0321°W)
Time: 18:04:40
(UTC+00:00)
Language:

ACS3 Solar Sail - Orbit

View from above orbital plane
View from above orbital plane
View from above satellite
View from above satellite

Ground track
Ground track

The orbit data is extracted from the following two-line orbital elements,

1 59588U 24077B   24196.75424272  .00000051  00000-0  93876-4 0  9993
2 59588  97.4049 258.5306 0020564  23.1864 337.0211 13.67691395 11177
Epoch (UTC): 14 July 2024 18:06:06
Eccentricity: 0.0020564
inclination: 97.4049°
perigee height: 992 km
apogee height: 1023 km
right ascension of ascending node: 258.5306°
argument of perigee: 23.1864°
revolutions per day: 13.67691395
mean anomaly at epoch: 337.0211°
orbit number at epoch: 1117

The dashed part of the orbit path shows where the satellite is in the earth's shadow,  

DLR